Kankakee, IL

2:30 AM CDT on May 30, 2017 (GMT -0500)
Greater Kankakee

Weather History for KIKK - July, 2013

Change the Weather History Date:

Tuesday, July 2, 2013

  Actual Average Record
Temperature  
Mean Temperature 63 °F -  
Max Temperature 66 °F 84 °F 95 °F (1991)
Min Temperature 60 °F 62 °F 48 °F (2005)
Degree Days  
Heating Degree Days 2    
Growing Degree Days 13 (Base 50)    
Moisture  
Dew Point 57 °F    
Average Humidity 81    
Maximum Humidity 95    
Minimum Humidity 72    
Precipitation  
Precipitation 0.00 in - - ()
Sea Level Pressure  
Sea Level Pressure 30.05 in    
Wind  
Wind Speed 7 mph (NNE)    
Max Wind Speed 13 mph    
Max Gust Speed 18 mph    
Visibility 10 miles    
Events Rain    
Averages and records for this station are not official NWS values.
T = Trace of Precipitation, MM = Missing Value Source: NWS Daily Summary

Daily Weather History Graph

Daily Weather History Graph

Search for Another Location

Airport or City:

Trip Planner

Search our weather history database for the weather conditions in past years. The results will help you decide how hot, cold, wet, or windy it might be!

Date:

Astronomy

Jul. 02, 2013 Rise Set
Actual Time 5:23 AM CDT 8:27 PM CDT
Civil Twilight 4:49 AM CDT 9:00 PM CDT
Nautical Twilight 4:07 AM CDT 9:43 PM CDT
Astronomical Twilight 3:16 AM CDT 10:33 PM CDT
Moon 1:27 AM CDT (7/2) 3:39 PM CDT (7/2)
Length of Visible Light 16h 10m
Length of Day
15h 04m
Waning Crescent, 26% of the Moon is Illuminated
Jul 2
Waning Crescent
Jul 8
New
Jul 15
First Quarter
Jul 22
Full
Jul 29
Last Quarter

Hourly Weather History & Observations

Time (CDT) Temp. Dew Point Humidity Pressure Visibility Wind Dir Wind Speed Gust Speed Precip Events Conditions
12:15 AM 64.9 °F 56.7 °F 74% 30.04 in 10.0 mi NE 5.8 mph - N/A   Overcast
12:35 AM 63.9 °F 57.2 °F 79% 30.04 in 10.0 mi NE 4.6 mph - N/A   Mostly Cloudy
12:55 AM 63.7 °F 56.5 °F 77% 30.04 in 10.0 mi ENE 4.6 mph - N/A   Mostly Cloudy
1:15 AM 63.7 °F 54.7 °F 72% 30.04 in 10.0 mi NNE 3.5 mph - N/A Rain Rain
1:35 AM 63.5 °F 57.2 °F 80% 30.04 in 10.0 mi North 3.5 mph - N/A   Mostly Cloudy
1:55 AM 63.0 °F 57.2 °F 81% 30.03 in 10.0 mi North 3.5 mph - N/A Rain Light Rain
2:15 AM 62.6 °F 56.1 °F 79% 30.03 in 10.0 mi North 4.6 mph - N/A Rain Light Rain
2:35 AM 62.4 °F 55.2 °F 77% 30.02 in 10.0 mi NNE 5.8 mph - N/A Rain Light Rain
2:55 AM 62.8 °F 54.7 °F 75% 30.02 in 10.0 mi NNE 5.8 mph - N/A   Overcast
3:15 AM 62.6 °F 54.5 °F 75% 30.02 in 10.0 mi NNE 5.8 mph - N/A   Overcast
3:35 AM 62.2 °F 54.7 °F 76% 30.02 in 10.0 mi NNE 4.6 mph - N/A   Mostly Cloudy
3:55 AM 62.1 °F 55.6 °F 79% 30.02 in 10.0 mi NNE 5.8 mph - N/A   Scattered Clouds
4:15 AM 62.1 °F 56.5 °F 82% 30.02 in 10.0 mi NNE 5.8 mph - N/A   Clear
4:35 AM 61.9 °F 56.3 °F 82% 30.02 in 10.0 mi NNE 5.8 mph - N/A   Clear
4:55 AM 61.7 °F 56.3 °F 82% 30.02 in 10.0 mi NNE 4.6 mph - N/A   Mostly Cloudy
5:15 AM 61.7 °F 55.9 °F 81% 30.03 in 10.0 mi North 5.8 mph - N/A   Mostly Cloudy
5:35 AM 61.0 °F 55.8 °F 83% 30.03 in 10.0 mi NNE 4.6 mph - N/A   Scattered Clouds
5:55 AM 61.0 °F 55.4 °F 82% 30.04 in 10.0 mi North 4.6 mph - N/A   Mostly Cloudy
6:15 AM 61.0 °F 55.4 °F 82% 30.04 in 10.0 mi NNE 5.8 mph - N/A   Scattered Clouds
6:35 AM 61.2 °F 55.4 °F 81% 30.04 in 10.0 mi NNE 5.8 mph - N/A   Scattered Clouds
6:55 AM 61.9 °F 55.0 °F 78% 30.05 in 10.0 mi North 5.8 mph - N/A   Mostly Cloudy
7:15 AM 62.2 °F 54.7 °F 76% 30.05 in 10.0 mi NNE 5.8 mph - N/A   Overcast
7:35 AM 62.8 °F 54.5 °F 74% 30.05 in 10.0 mi NNE 6.9 mph - N/A   Overcast
7:55 AM 62.8 °F 54.7 °F 75% 30.05 in 10.0 mi NNE 6.9 mph - N/A   Overcast
8:15 AM 63.3 °F 55.2 °F 75% 30.06 in 10.0 mi NNE 6.9 mph - N/A   Overcast
8:35 AM 63.5 °F 55.4 °F 75% 30.05 in 10.0 mi NNE 8.1 mph - N/A   Overcast
8:55 AM 63.9 °F 55.9 °F 75% 30.05 in 10.0 mi NNE 8.1 mph - N/A   Overcast
9:15 AM 64.4 °F 56.5 °F 75% 30.06 in 10.0 mi NNE 6.9 mph - N/A   Mostly Cloudy
9:35 AM 64.4 °F 56.5 °F 75% 30.06 in 10.0 mi NNE 9.2 mph - N/A   Overcast
9:55 AM 64.8 °F 56.7 °F 75% 30.06 in 10.0 mi North 9.2 mph - N/A   Overcast
10:15 AM 65.3 °F 57.2 °F 75% 30.05 in 10.0 mi North 10.4 mph - N/A   Overcast
10:35 AM 65.5 °F 57.6 °F 76% 30.06 in 10.0 mi NNE 9.2 mph - N/A   Overcast
10:55 AM 65.8 °F 58.1 °F 76% 30.06 in 10.0 mi NNE 9.2 mph - N/A   Overcast
11:15 AM 66.4 °F 58.1 °F 75% 30.06 in 10.0 mi NNE 9.2 mph 18.4 mph N/A   Overcast
11:35 AM 66.4 °F 57.9 °F 74% 30.06 in 10.0 mi NNE 11.5 mph 16.1 mph N/A   Overcast
11:55 AM 66.2 °F 58.3 °F 76% 30.06 in 10.0 mi NNE 8.1 mph - N/A   Overcast
12:15 PM 65.8 °F 58.6 °F 78% 30.06 in 10.0 mi NNE 9.2 mph - N/A   Overcast
12:35 PM 65.8 °F 58.6 °F 78% 30.06 in 10.0 mi NNE 11.5 mph 16.1 mph N/A Rain Light Rain
12:55 PM 65.7 °F 58.5 °F 78% 30.06 in 10.0 mi NNE 9.2 mph 16.1 mph N/A Rain Light Rain
1:15 PM 65.7 °F 58.3 °F 77% 30.06 in 10.0 mi NNE 10.4 mph 16.1 mph N/A   Overcast
1:35 PM 65.7 °F 58.5 °F 78% 30.06 in 10.0 mi NNE 9.2 mph 17.3 mph N/A   Overcast
1:55 PM 65.8 °F 58.5 °F 77% 30.06 in 10.0 mi NNE 11.5 mph - N/A   Overcast
2:15 PM 65.5 °F 57.6 °F 76% 30.05 in 10.0 mi North 9.2 mph 18.4 mph N/A   Overcast
2:35 PM 65.5 °F 57.6 °F 76% 30.05 in 10.0 mi North 9.2 mph 16.1 mph N/A   Overcast
2:55 PM 65.8 °F 58.1 °F 76% 30.05 in 10.0 mi NNE 12.7 mph 16.1 mph N/A   Overcast
3:15 PM 64.8 °F 57.4 °F 77% 30.05 in 10.0 mi NNE 10.4 mph 17.3 mph N/A   Overcast
3:35 PM 64.4 °F 57.4 °F 78% 30.06 in 10.0 mi NNE 11.5 mph - N/A   Overcast
3:55 PM 64.4 °F 57.6 °F 78% 30.05 in 10.0 mi NNE 12.7 mph 17.3 mph N/A   Overcast
4:15 PM 64.4 °F 57.4 °F 78% 30.05 in 10.0 mi NNE 9.2 mph - N/A   Overcast
4:35 PM 63.0 °F 57.2 °F 81% 30.05 in 10.0 mi North 10.4 mph 16.1 mph N/A   Overcast
4:55 PM 63.0 °F 57.4 °F 82% 30.05 in 10.0 mi NNE 9.2 mph - N/A   Overcast
5:15 PM 63.0 °F 57.4 °F 82% 30.05 in 10.0 mi NNE 9.2 mph - N/A   Overcast
5:35 PM 63.0 °F 57.2 °F 81% 30.05 in 10.0 mi NNE 9.2 mph - N/A   Overcast
5:55 PM 62.8 °F 57.2 °F 82% 30.05 in 10.0 mi NNE 9.2 mph - N/A   Overcast
6:15 PM 62.6 °F 57.2 °F 82% 30.05 in 10.0 mi NNE 12.7 mph - N/A   Overcast
6:35 PM 62.2 °F 57.4 °F 84% 30.05 in 10.0 mi NNE 11.5 mph 16.1 mph N/A   Overcast
6:55 PM 62.1 °F 57.6 °F 85% 30.05 in 10.0 mi NNE 8.1 mph - N/A   Overcast
7:15 PM 61.9 °F 57.4 °F 85% 30.05 in 10.0 mi NNE 11.5 mph - N/A   Overcast
7:35 PM 61.7 °F 57.6 °F 86% 30.05 in 10.0 mi North 8.1 mph - N/A   Overcast
7:55 PM 61.3 °F 57.7 °F 88% 30.05 in 10.0 mi NNE 9.2 mph - N/A   Overcast
8:15 PM 61.2 °F 57.9 °F 89% 30.05 in 10.0 mi NNE 8.1 mph - N/A   Overcast
8:35 PM 61.0 °F 58.1 °F 90% 30.05 in 10.0 mi NNE 6.9 mph - N/A   Overcast
8:55 PM 61.0 °F 58.1 °F 90% 30.05 in 10.0 mi NNE 8.1 mph - N/A   Overcast
9:15 PM 60.8 °F 58.1 °F 91% 30.06 in 7.0 mi North 8.1 mph - N/A   Overcast
9:35 PM 60.8 °F 58.1 °F 91% 30.07 in 10.0 mi NNE 5.8 mph - N/A   Overcast
9:55 PM 60.8 °F 58.1 °F 91% 30.07 in 7.0 mi NNE 5.8 mph - N/A   Overcast
10:15 PM 60.3 °F 58.1 °F 93% 30.07 in 7.0 mi NNE 6.9 mph - N/A   Overcast
10:35 PM 60.1 °F 58.1 °F 93% 30.07 in 7.0 mi NNE 4.6 mph - N/A   Overcast
10:55 PM 60.1 °F 58.3 °F 94% 30.06 in 5.0 mi North 4.6 mph - N/A   Overcast
11:15 PM 60.4 °F 58.3 °F 93% 30.05 in 7.0 mi North 6.9 mph - N/A   Overcast
11:35 PM 60.3 °F 58.5 °F 94% 30.05 in 7.0 mi North 5.8 mph - N/A   Overcast
11:55 PM 60.4 °F 59.0 °F 95% 30.05 in 5.0 mi North 4.6 mph - N/A   Overcast